Regional Weather Roundup
Issued by NWS Albany, NY

Home | Current Version | Previous Version | Graphics & Text | Print | Product List | Glossary On
Versions: 1 2 3 4 5 6 7 8 9 10 11 12 13 14 15 16 17 18 19 20 21 22 23 24 25 26 27 28
000
ASUS41 KALY 260710
RWRALY

NEW YORK STATE HOURLY WEATHER ROUNDUP
NATIONAL WEATHER SERVICE ALBANY NY
300 AM EDT MON JUN 26 2017

NOTE: "FAIR" INDICATES FEW OR NO CLOUDS BELOW 12,000 FEET WITH NO
SIGNIFICANT WEATHER AND/OR NO OBSTRUCTIONS TO VISIBILITY.

NYZ032-033-038>043-046>054-057>066-NYZ062>081-082-084-260800-
EAST


CITY           SKY/WX    TMP DP  RH WIND       PRES   REMARKS
ALBANY         PTCLDY    55  53  93 CALM      29.98F
GLENS FALLS    CLEAR     55  51  86 SW7       29.96S
POUGHKEEPSIE   CLEAR     56  53  90 CALM      29.98S
NEWBURGH       CLEAR     57  52  82 W6        30.01S
MONTGOMERY     CLEAR     55  52  89 CALM      30.00S
ISLIP          CLEAR     65  54  67 N5        29.97S
NEW YORK CITY  PTCLDY    69  51  52 N6        29.98S
CENTRAL PARK   CLEAR     67  49  52 NW5       30.01F
$$

NYZ005>009-017-018-044>046-055-056-260800-
CENTRAL


CITY           SKY/WX    TMP DP  RH WIND       PRES   REMARKS
FULTON         MOCLDY    53  51  93 CALM      29.97F
SYRACUSE       PTCLDY    56  52  86 W3        29.96F
ROME           CLOUDY    51  50  96 CALM      29.99F
ELMIRA         NOT AVBL
BINGHAMTON     NOT AVBL
MONTICELLO     CLEAR     54  50  87 W6        30.03S
$$

NYZ026>034-041>043-087-260800-
NORTH


CITY           SKY/WX    TMP DP  RH WIND       PRES   REMARKS
WATERTOWN      PTCLDY    53  52  96 SW3       29.95F
FORT DRUM      NOT AVBL
OGDENSBURG     MOCLDY    54  53  96 CALM      29.94S
MASSENA        PTCLDY    53  52  96 SW6       29.93S
SARANAC LAKE   PTCLDY    51  49  92 SW8       29.93S
PLATTSBURGH    CLEAR     57  48  72 SW3       29.90S
$$

NYZ001>004-010>016-019>021-085-260800-
WEST


CITY           SKY/WX    TMP DP  RH WIND       PRES   REMARKS
NIAGARA FALLS  CLOUDY    61  50  67 W5        29.97F
BUFFALO        MOCLDY    61  49  64 SW6       29.98F
DUNKIRK        CLOUDY    58  51  78 S6        30.00F
JAMESTOWN      CLEAR     52  46  82 SW3       30.03F
WELLSVILLE     MOCLDY    54  46  74 SW6       30.04F
ROCHESTER      PTCLDY    57  54  89 SW5       29.98F
PENN YAN       PTCLDY    56  50  80 SW6       30.00F
$$

             KEY
       WCI = WIND CHILL INDEX
       VSB = VISIBILITY
       HX  = HEAT INDEX
$$




USA.gov is the U.S. government's official web portal to all federal, state and local government web resources and services.